Orlando International, FL

6:18 PM EDT on October 20, 2017 (GMT -0400)
Orlando International

Weather History for KMCO - April, 2014

Change the Weather History Date:

Sunday, April 20, 2014

  Actual Average Record
Temperature  
Mean Temperature 67 °F 72 °F  
Max Temperature 73 °F 83 °F 96 °F (1908)
Min Temperature 61 °F 61 °F 39 °F (1936)
Degree Days  
Heating Degree Days 0 0  
Month to date heating degree days 0 11  
Since 1 July heating degree days 406 569  
Cooling Degree Days 2 7  
Month to date cooling degree days 146 118  
Year to date cooling degree days 403 340  
Growing Degree Days 17 (Base 50)    
Moisture  
Dew Point 58 °F    
Average Humidity 75    
Maximum Humidity 93    
Minimum Humidity 57    
Precipitation  
Precipitation T in 0.09 in 1.16 in (1991)
Month to date precipitation 2.35 1.91  
Year to date precipitation 11.91 10.41  
Sea Level Pressure  
Sea Level Pressure 30.04 in    
Wind  
Wind Speed 11 mph (NNW)    
Max Wind Speed 17 mph    
Max Gust Speed 21 mph    
Visibility 10 miles    
Events Rain    
T = Trace of Precipitation, MM = Missing Value Source: NWS Daily Summary

Daily Weather History Graph

Daily Weather History Graph

Search for Another Location

Airport or City:

Trip Planner

Search our weather history database for the weather conditions in past years. The results will help you decide how hot, cold, wet, or windy it might be!

Date:

Astronomy

Apr. 20, 2014 Rise Set
Actual Time 6:54 AM EDT 7:53 PM EDT
Civil Twilight 6:30 AM EDT 8:18 PM EDT
Nautical Twilight 6:01 AM EDT 8:47 PM EDT
Astronomical Twilight 5:32 AM EDT 9:16 PM EDT
Moon 12:22 AM EDT 11:23 AM EDT
Length of Visible Light 13h 47m
Length of Day
12h 59m
Waning Gibbous, 69% of the Moon is Illuminated
Apr 20
Waning Gibbous
Apr 22
Last Quarter
Apr 29
New
May 6
First Quarter
May 14
Full

Hourly Weather History & Observations

Time (EDT) Temp. Dew Point Humidity Pressure Visibility Wind Dir Wind Speed Gust Speed Precip Events Conditions
12:11 AM 64.9 °F 55.9 °F 73% 30.00 in 10.0 mi West 8.1 mph - N/A   Overcast
12:53 AM 64.9 °F 57.0 °F 75% 29.99 in 10.0 mi West 9.2 mph - N/A   Overcast
1:21 AM 64.9 °F 57.0 °F 75% 29.99 in 10.0 mi West 8.1 mph - N/A   Overcast
1:53 AM 63.0 °F 59.0 °F 87% 29.99 in 10.0 mi West 5.8 mph - N/A   Overcast
2:27 AM 63.0 °F 59.0 °F 87% 29.97 in 10.0 mi WNW 5.8 mph - N/A   Overcast
2:53 AM 63.0 °F 60.1 °F 90% 29.96 in 10.0 mi West 4.6 mph - N/A   Overcast
3:13 AM 63.0 °F 60.1 °F 90% 29.96 in 8.0 mi NW 5.8 mph - 0.00 in Rain Light Rain
3:53 AM 64.0 °F 60.1 °F 87% 29.96 in 10.0 mi NNW 6.9 mph - 0.00 in   Overcast
4:53 AM 64.0 °F 60.1 °F 87% 29.96 in 10.0 mi NNW 6.9 mph - 0.00 in   Overcast
5:53 AM 63.0 °F 60.1 °F 90% 29.99 in 10.0 mi NNW 10.4 mph - 0.00 in   Overcast
5:59 AM 63.0 °F 60.1 °F 90% 29.99 in 10.0 mi NNW 10.4 mph - N/A   Mostly Cloudy
6:25 AM 63.0 °F 60.1 °F 90% 29.99 in 8.0 mi NNW 11.5 mph - 0.00 in Rain Light Rain
6:53 AM 63.0 °F 60.1 °F 90% 30.00 in 10.0 mi North 11.5 mph - 0.00 in Rain Light Rain
7:53 AM 62.1 °F 57.9 °F 86% 30.03 in 10.0 mi North 12.7 mph - 0.00 in   Overcast
8:53 AM 62.1 °F 57.0 °F 84% 30.04 in 10.0 mi North 13.8 mph - N/A   Overcast
9:53 AM 63.0 °F 57.0 °F 81% 30.06 in 10.0 mi North 12.7 mph - N/A   Overcast
10:44 AM 63.0 °F 57.0 °F 81% 30.08 in 10.0 mi NNW 13.8 mph - N/A   Overcast
10:53 AM 63.0 °F 57.0 °F 81% 30.08 in 10.0 mi NNW 11.5 mph - N/A   Overcast
11:53 AM 66.0 °F 55.9 °F 70% 30.08 in 10.0 mi NW 10.4 mph - N/A   Mostly Cloudy
12:53 PM 69.1 °F 57.0 °F 65% 30.06 in 10.0 mi NW 8.1 mph - N/A   Mostly Cloudy
1:53 PM 69.1 °F 57.0 °F 65% 30.06 in 10.0 mi NNW 11.5 mph - N/A   Mostly Cloudy
2:53 PM 71.1 °F 57.0 °F 61% 30.04 in 10.0 mi NNW 13.8 mph - N/A   Overcast
3:53 PM 70.0 °F 55.9 °F 61% 30.04 in 10.0 mi NNW 10.4 mph - N/A   Overcast
4:53 PM 71.1 °F 55.9 °F 59% 30.04 in 10.0 mi NNW 11.5 mph - N/A   Mostly Cloudy
5:53 PM 69.1 °F 57.0 °F 65% 30.05 in 10.0 mi North 12.7 mph - N/A   Overcast
6:43 PM 66.9 °F 55.9 °F 68% 30.06 in 10.0 mi North 11.5 mph - N/A   Overcast
6:53 PM 66.9 °F 55.9 °F 68% 30.05 in 10.0 mi North 10.4 mph - N/A   Overcast
7:53 PM 66.0 °F 55.9 °F 70% 30.06 in 10.0 mi North 9.2 mph - N/A   Overcast
8:53 PM 64.9 °F 55.9 °F 73% 30.08 in 10.0 mi North 11.5 mph - N/A   Overcast
9:53 PM 64.0 °F 55.9 °F 75% 30.09 in 10.0 mi North 12.7 mph - N/A   Overcast
10:35 PM 62.1 °F 57.9 °F 86% 30.10 in 6.0 mi NNE 10.4 mph - 0.00 in   Light Drizzle
10:45 PM 62.1 °F 57.9 °F 86% 30.10 in 6.0 mi NNE 11.5 mph - 0.00 in   Light Drizzle
10:53 PM 61.0 °F 57.9 °F 90% 30.10 in 5.0 mi NNE 13.8 mph - 0.00 in   Light Drizzle
11:25 PM 61.0 °F 57.0 °F 87% 30.11 in 10.0 mi North 9.2 mph - 0.00 in   Overcast
11:53 PM 62.1 °F 57.0 °F 84% 30.10 in 10.0 mi North 8.1 mph - 0.00 in   Overcast